[[[{"header":{"parameterUnit":"kt","parameterCategory":2,"dx":1,"dy":1,"la1":30.253999710083008,"la2":30.299108505249023,"lo1":-89.0895004272461,"lo2":-89.04439544677734,"nx":28,"ny":28,"refTime":"2022-09-27T21:00:00:Z","depth":0,"parameterNumber":1,"parameterNumberName":"U-component_of_WINDS"},"data":[-5.955,-5.9633,-5.9612,-5.9697,-5.9693,-5.9747,-5.976,-5.9774,-5.978,-5.9843,-5.9875,-5.9862,-5.986,-5.9894,-5.9928,-5.9921,-5.9937,-5.9981,-5.9966,-5.9789,-5.9763,-5.9738,-5.9717,-5.9985,-5.9985,-6.0153,-6.0155,-6.0156,-5.9419,-5.9416,-5.9455,-5.9479,-5.9512,-5.9456,-5.9471,-5.9502,-5.9553,-5.9561,-5.9592,-5.9645,-5.9685,-5.9668,-5.9703,-5.9741,-5.9717,-5.9751,-5.9749,-5.9749,-5.9558,-5.9536,-5.977,-5.977,-5.977,-5.977,-5.977,-5.977,-5.9175,-5.9226,-5.9228,-5.927,-5.9277,-5.9293,-5.9338,-5.9321,-5.936,-5.9393,-5.9361,-5.9418,-5.9423,-5.9455,-5.9461,-5.9504,-5.9462,-5.9494,-5.9502,-5.951,-5.9523,-5.9282,-5.9509,-5.9508,-5.9507,-5.9507,-5.9506,0,-5.899,-5.8969,-5.9006,-5.9036,-5.9066,-5.9087,-5.9104,-5.9131,-5.908,-5.9114,-5.9161,-5.9185,-5.9232,-5.9274,-5.9302,-5.9301,-5.9248,-5.9241,-5.9262,-5.9279,-5.929,-5.9285,-5.8975,-5.9235,-5.9232,-5.9231,-5.9229,-5.9228,-5.8743,-5.8805,-5.8797,-5.8826,-5.883,-5.8877,-5.89,-5.885,-5.8878,-5.8891,-5.8938,-5.898,-5.901,-5.909,-5.9071,-5.9106,-5.9081,-5.9182,-5.9086,-5.9099,-5.9083,-5.908,-5.9085,-5.9203,-5.9206,-5.9209,-5.9211,0,-5.8605,-5.8571,-5.8661,-5.8647,-5.8646,-5.8714,-5.8702,-5.8751,-5.873,-5.8795,-5.8807,-5.8774,-5.8822,-5.8786,-5.8833,-5.8813,-5.8924,-5.8898,-5.8921,-5.8914,-5.9001,-5.8994,-5.9291,-5.9327,-5.9048,-5.9051,-5.9053,0,-5.8381,-5.8465,-5.8409,-5.8463,-5.8554,-5.8502,-5.8593,-5.8584,-5.8587,-5.8638,-5.8571,-5.862,-5.8566,-5.861,-5.8581,-5.8664,-5.8673,-5.8663,-5.8654,-5.8669,-5.8671,-5.8684,-5.8671,-5.8632,-5.863,-5.8629,-5.8628,0,-5.817,-5.8238,-5.8326,-5.8336,-5.8331,-5.8373,-5.8373,-5.8376,-5.8401,-5.8426,-5.8441,-5.8474,-5.8493,-5.852,-5.8482,-5.8418,-5.8583,-5.8487,-5.8573,-5.8574,-5.8612,-5.8611,-5.8881,-5.8626,-5.8626,-5.8625,-5.8625,0,-5.7984,-5.801,-5.8142,-5.8136,-5.8156,-5.8214,-5.8243,-5.8284,-5.8293,-5.8278,-5.8297,-5.8249,-5.832,-5.8227,-5.8323,-5.825,-5.8272,-5.8269,-5.8274,-5.8279,-5.8177,-5.8335,-5.8596,-5.8622,-5.8282,-5.8279,-5.8277,0,-5.7751,-5.7876,-5.7832,-5.7959,-5.8011,-5.7932,-5.7995,-5.8005,-5.799,-5.8032,-5.8015,-5.8064,-5.7988,-5.7998,-5.805,-5.8035,-5.813,-5.8021,-5.8083,-5.8086,-5.8083,-5.8323,-5.8371,-5.8542,-5.824,-5.8243,-5.8246,0,-5.7567,-5.7561,-5.7587,-5.7596,-5.7601,-5.7644,-5.7717,-5.7754,-5.7784,-5.7803,-5.7863,-5.7931,-5.7875,-5.7894,-5.7858,-5.7915,-5.8064,-5.7848,-5.7848,-5.7889,-5.8218,-5.8263,-5.8292,-5.8028,-5.8032,-5.8036,-5.8217,0,-5.7294,-5.7352,-5.742,-5.7445,-5.7473,-5.755,-5.7512,-5.7546,-5.7509,-5.7491,-5.7579,-5.7579,-5.7617,-5.764,-5.7605,-5.7746,-5.7717,-5.7658,-5.7566,-5.7723,-5.7782,-5.7806,-5.7481,-5.7478,-5.7476,-5.7474,0,0,-5.708,-5.7163,-5.7113,-5.7182,-5.7203,-5.7121,-5.7207,-5.7218,-5.7242,-5.7258,-5.7206,-5.7303,-5.7306,-5.7416,-5.7462,-5.7478,-5.75,-5.7447,-5.7649,-5.7668,-5.7686,-5.775,-5.7775,-5.7469,-5.7468,-5.7467,-5.7467,0,-5.6973,-5.6976,-5.7062,-5.7071,-5.7082,-5.7059,-5.708,-5.7077,-5.707,-5.7155,-5.7087,-5.7135,-5.7215,-5.7226,-5.7242,-5.7432,-5.7378,-5.7446,-5.7561,-5.7625,-5.7648,-5.7668,-5.7735,-5.776,-5.7461,-5.7461,-5.7461,0,-5.6785,-5.6782,-5.682,-5.6863,-5.687,-5.6926,-5.682,-5.6885,-5.6926,-5.6834,-5.6921,-5.6916,-5.6928,-5.7038,-5.7085,-5.704,-5.727,-5.7191,-5.7205,-5.721,-5.7271,-5.7298,-5.7323,-5.6999,-5.6997,-5.6996,0,0,-5.6697,-5.6751,-5.6733,-5.6837,-5.6846,-5.6814,-5.684,-5.6806,-5.6819,-5.6824,-5.6817,-5.6832,-5.6877,-5.6908,-5.6949,-5.7074,-5.7073,-5.7135,-5.7157,-5.7175,-5.719,-5.7255,-5.7282,-5.699,-5.699,-5.699,0,0,-5.6656,-5.6639,-5.6599,-5.6715,-5.6729,-5.6718,-5.6783,-5.6734,-5.6767,-5.6754,-5.67,-5.6702,-5.6803,-5.6802,-5.6732,-5.6915,-5.6825,-5.6841,-5.6913,-5.694,-5.6961,-5.696,-5.6624,0,0,0,0,0,-5.6526,-5.664,-5.6604,-5.6618,-5.6674,-5.6738,-5.6745,-5.6702,-5.6639,-5.6691,-5.6677,-5.6618,-5.6753,-5.669,-5.6705,-5.6783,-5.6919,-5.6932,-5.6944,-5.7066,-5.7095,-5.7119,0,0,0,0,0,0,-5.6531,-5.6548,-5.6601,-5.6597,-5.6608,-5.6734,-5.6617,-5.6608,-5.6632,-5.6619,-5.6622,-5.6618,-5.6583,-5.6679,-5.6693,-5.6769,-5.6619,-5.6924,-5.6935,-5.6945,-5.7076,-5.7099,-5.712,0,0,0,0,0,-5.6535,-5.6549,-5.6649,-5.6594,-5.6605,-5.6576,-5.6612,-5.6604,-5.6622,-5.6601,-5.6594,-5.6588,-5.6587,-5.6595,-5.6688,-5.6764,-5.6609,-5.6615,-5.6931,-5.694,-5.6947,-5.7088,0,0,0,0,0,0,-5.6538,-5.6542,-5.665,-5.6652,-5.6548,-5.6568,-5.6569,-5.6601,-5.6601,-5.6596,-5.6563,-5.6553,-5.659,-5.6596,-5.6604,-5.6764,-5.6601,-5.6607,-5.661,-5.6938,-5.6944,-5.695,0,0,0,0,0,0,-5.6534,-5.6544,-5.6651,-5.6595,-5.659,-5.6561,-5.6562,-5.6634,-5.6602,-5.6562,-5.6554,-5.6559,-5.658,-5.6598,-5.6603,-5.6718,-5.6595,-5.66,-5.6604,-5.6606,-5.6943,-5.6948,0,0,0,0,0,0,-5.6537,-5.6546,-5.6594,-5.659,-5.6585,-5.66,-5.6624,-5.6683,-5.6554,-5.6564,-5.6541,-5.6535,-5.6583,-5.6587,-5.6603,-5.6716,-5.6717,-5.6595,-5.6599,-5.6601,-5.6603,0,0,0,0,0,0,0,-5.654,-5.6495,-5.6641,-5.6587,-5.6582,-5.6666,-5.6667,-5.6667,-5.6552,-5.6547,-5.6542,-5.6537,-5.6565,-5.6571,-5.6577,-5.6715,0,0,-5.6595,-5.6597,0,0,0,0,0,0,0,0,-5.649,-5.6494,-5.6641,-5.6641,-5.6641,-5.6666,-5.6667,-5.6667,-5.6551,-5.6547,-5.6543,-5.6539,-5.6567,-5.6572,-5.6576,0,0,0,0,0,0,0,0,0,0,0,0,0,0,0,-5.6641,-5.6641,0,-5.6666,-5.6667,-5.6667,-5.6551,-5.6547,-5.6544,-5.6541,-5.6568,-5.6572,-5.6576,0,0,0,0,0,0,0,0,0,0,0,0,0,0,0,0,0,0,0,0,0,0,0,0,0,0,0,0,0,0,0,0,0,0,0,0,0,0,0,0,0,0,0,0,0,0,0,0,0,0,0,0,0,0,0,0,0,0,0,0,0,0,0,0,0,0,0,0,0]}],[{"header":{"parameterUnit":"kt","parameterCategory":2,"dx":1,"dy":1,"la1":30.253999710083008,"la2":30.299108505249023,"lo1":-89.0895004272461,"lo2":-89.04439544677734,"nx":28,"ny":28,"refTime":"2022-09-27T21:00:00:Z","depth":0,"parameterNumber":2,"parameterNumberName":"V-component_of_WINDS"},"data":[-18.8409,-18.8573,-18.8545,-18.8719,-18.8721,-18.8834,-18.8864,-18.8899,-18.8919,-18.9047,-18.9115,-18.9099,-18.9103,-18.9175,-18.9244,-18.9234,-18.9265,-18.9348,-18.9321,-18.8986,-18.8937,-18.889,-18.885,-18.9355,-18.9356,-18.9673,-18.9676,-18.9678,-18.8171,-18.8177,-18.826,-18.832,-18.8391,-18.8295,-18.8333,-18.8397,-18.8499,-18.8524,-18.8588,-18.8696,-18.8777,-18.8751,-18.8822,-18.8896,-18.8852,-18.8917,-18.891,-18.8912,-18.8553,-18.851,-18.8951,-18.8951,-18.8951,-18.8951,-18.8951,-18.8951,-18.773,-18.783,-18.7848,-18.7937,-18.7958,-18.7998,-18.8086,-18.8064,-18.8142,-18.8214,-18.8159,-18.8271,-18.8287,-18.8353,-18.8367,-18.8452,-18.8373,-18.8432,-18.8447,-18.8463,-18.8486,-18.8035,-18.8462,-18.846,-18.8459,-18.8458,-18.8457,0,-18.7397,-18.7366,-18.7441,-18.751,-18.7572,-18.762,-18.7658,-18.7712,-18.7626,-18.7694,-18.7788,-18.7836,-18.793,-18.8012,-18.8069,-18.8069,-18.7971,-18.7956,-18.7997,-18.8026,-18.8046,-18.8037,-18.7453,-18.7943,-18.7939,-18.7935,-18.7933,-18.7931,-18.6949,-18.7068,-18.707,-18.7128,-18.714,-18.7233,-18.7281,-18.7197,-18.7252,-18.7283,-18.7373,-18.7455,-18.7516,-18.7668,-18.7634,-18.7703,-18.7655,-18.7846,-18.7664,-18.7689,-18.7657,-18.7651,-18.7663,-18.7883,-18.7889,-18.7894,-18.7898,0,-18.67,-18.6647,-18.6819,-18.6807,-18.6807,-18.6935,-18.6923,-18.7016,-18.6981,-18.7104,-18.7128,-18.7072,-18.7164,-18.7098,-18.7187,-18.715,-18.7358,-18.7309,-18.7353,-18.734,-18.7504,-18.749,-18.8049,-18.8118,-18.7594,-18.7599,-18.7603,0,-18.6296,-18.6454,-18.6365,-18.6467,-18.664,-18.6549,-18.6722,-18.6708,-18.6718,-18.6814,-18.6693,-18.6785,-18.6685,-18.6768,-18.6712,-18.687,-18.6886,-18.6866,-18.6849,-18.6877,-18.688,-18.6901,-18.6876,-18.6806,-18.6803,-18.6801,-18.6799,0,-18.5912,-18.6046,-18.6213,-18.6234,-18.6234,-18.6314,-18.6316,-18.6325,-18.6372,-18.6421,-18.645,-18.6513,-18.6547,-18.6597,-18.6526,-18.6405,-18.6716,-18.6534,-18.6696,-18.6698,-18.6766,-18.6763,-18.7276,-18.6795,-18.6794,-18.6793,-18.6792,0,-18.5575,-18.5629,-18.5878,-18.5875,-18.5913,-18.6021,-18.6078,-18.6155,-18.6173,-18.6145,-18.6182,-18.6091,-18.6222,-18.6047,-18.6227,-18.609,-18.613,-18.6123,-18.6133,-18.6139,-18.5944,-18.6242,-18.6739,-18.6788,-18.6148,-18.6143,-18.6138,0,-18.515,-18.5385,-18.5308,-18.5545,-18.5644,-18.55,-18.5618,-18.5637,-18.5609,-18.5687,-18.5654,-18.5743,-18.5598,-18.5615,-18.5714,-18.5682,-18.5861,-18.5656,-18.5768,-18.5773,-18.5768,-18.6225,-18.6314,-18.6638,-18.6068,-18.6075,-18.608,0,-18.4812,-18.4809,-18.4856,-18.4876,-18.4886,-18.4967,-18.5103,-18.517,-18.5227,-18.5259,-18.537,-18.5492,-18.5387,-18.5417,-18.5348,-18.5453,-18.5737,-18.5326,-18.5324,-18.5402,-18.6026,-18.6112,-18.6167,-18.5667,-18.5676,-18.5682,-18.6025,0,-18.4318,-18.4426,-18.4552,-18.4598,-18.4649,-18.4792,-18.472,-18.4783,-18.4712,-18.4678,-18.4838,-18.4831,-18.4897,-18.494,-18.4869,-18.5132,-18.5076,-18.4963,-18.4785,-18.5086,-18.5197,-18.5242,-18.4627,-18.4621,-18.4616,-18.4612,0,0,-18.3924,-18.4076,-18.3984,-18.4112,-18.4149,-18.3995,-18.4154,-18.4171,-18.421,-18.4239,-18.414,-18.431,-18.4308,-18.451,-18.4598,-18.4624,-18.4663,-18.456,-18.4943,-18.4981,-18.5015,-18.5135,-18.5183,-18.4604,-18.4602,-18.46,-18.4599,0,-18.3727,-18.3733,-18.3891,-18.3906,-18.3924,-18.3879,-18.3918,-18.3906,-18.3891,-18.4046,-18.3913,-18.3999,-18.4136,-18.4152,-18.4178,-18.4535,-18.4428,-18.456,-18.4778,-18.4898,-18.4942,-18.498,-18.5107,-18.5154,-18.4587,-18.4588,-18.4588,0,-18.3381,-18.3374,-18.3443,-18.352,-18.3528,-18.3632,-18.3429,-18.3546,-18.3621,-18.344,-18.3595,-18.3581,-18.3595,-18.3794,-18.388,-18.3792,-18.4218,-18.4069,-18.4097,-18.4104,-18.4216,-18.4269,-18.4316,-18.3699,-18.3696,-18.3693,0,0,-18.3221,-18.332,-18.3282,-18.3471,-18.3487,-18.3421,-18.3467,-18.3399,-18.3416,-18.3423,-18.3401,-18.3421,-18.3499,-18.3552,-18.3621,-18.385,-18.3845,-18.3963,-18.4005,-18.4039,-18.4065,-18.4187,-18.4239,-18.3683,-18.3682,-18.3682,0,0,-18.3142,-18.3107,-18.3032,-18.3242,-18.3265,-18.3237,-18.3355,-18.3261,-18.3315,-18.329,-18.3178,-18.3178,-18.3362,-18.3352,-18.3221,-18.3556,-18.3382,-18.3411,-18.3555,-18.3607,-18.3648,-18.3646,-18.3009,0,0,0,0,0,-18.2902,-18.3111,-18.3044,-18.3068,-18.3161,-18.3276,-18.3287,-18.32,-18.308,-18.3176,-18.3142,-18.3024,-18.3259,-18.314,-18.3165,-18.3311,-18.3547,-18.3572,-18.3594,-18.3833,-18.3888,-18.3935,0,0,0,0,0,0,-18.2911,-18.2941,-18.3038,-18.3021,-18.3041,-18.3267,-18.3044,-18.3026,-18.3067,-18.3043,-18.3034,-18.3023,-18.295,-18.3122,-18.3145,-18.3286,-18.3001,-18.3557,-18.3577,-18.3596,-18.3852,-18.3897,-18.3936,0,0,0,0,0,-18.2918,-18.2941,-18.3114,-18.3017,-18.3035,-18.297,-18.3035,-18.3019,-18.3049,-18.2996,-18.2982,-18.298,-18.2957,-18.297,-18.3135,-18.3277,-18.2984,-18.2993,-18.357,-18.3586,-18.3601,-18.3874,0,0,0,0,0,0,-18.2922,-18.2926,-18.3115,-18.3117,-18.2931,-18.2956,-18.2957,-18.3013,-18.2997,-18.2986,-18.2935,-18.2916,-18.2964,-18.2973,-18.2984,-18.328,-18.297,-18.2979,-18.2985,-18.3582,-18.3595,-18.3606,0,0,0,0,0,0,-18.2912,-18.2929,-18.3116,-18.3013,-18.3002,-18.2943,-18.2944,-18.307,-18.2999,-18.2936,-18.292,-18.2927,-18.2946,-18.2976,-18.2984,-18.3184,-18.296,-18.2968,-18.2974,-18.2978,-18.3593,-18.3602,0,0,0,0,0,0,-18.2918,-18.2932,-18.3011,-18.3003,-18.2993,-18.3008,-18.3052,-18.3152,-18.2913,-18.2939,-18.2889,-18.2878,-18.2953,-18.2958,-18.2985,-18.3183,-18.3184,-18.296,-18.2966,-18.297,-18.2973,0,0,0,0,0,0,0,-18.2922,-18.2849,-18.3104,-18.2996,-18.2986,-18.3136,-18.3136,-18.3137,-18.2911,-18.2901,-18.2892,-18.2883,-18.2909,-18.2919,-18.2929,-18.3182,0,0,-18.2959,-18.2963,0,0,0,0,0,0,0,0,-18.2841,-18.2847,-18.3104,-18.3105,-18.3105,-18.3136,-18.3136,-18.3137,-18.2909,-18.2901,-18.2894,-18.2886,-18.2912,-18.292,-18.2928,0,0,0,0,0,0,0,0,0,0,0,0,0,0,0,-18.3104,-18.3105,0,-18.3136,-18.3136,-18.3137,-18.2908,-18.2902,-18.2895,-18.2889,-18.2914,-18.292,-18.2927,0,0,0,0,0,0,0,0,0,0,0,0,0,0,0,0,0,0,0,0,0,0,0,0,0,0,0,0,0,0,0,0,0,0,0,0,0,0,0,0,0,0,0,0,0,0,0,0,0,0,0,0,0,0,0,0,0,0,0,0,0,0,0,0,0,0,0,0,0]}]]]